BEL4JF LDDU-EBBR

Flight info

Callsign BEL4JF
Flight time N/A
Altitude 38000
Route AMUGO DCT SIPAL DCT SIRMI DCT KULEN DCT UPETA DCT VEKEN DCT ERKIR DCT BABEG DCT SUNEG DCT MISGI Z104 GESLO N852 LNO
Aircraft A20N/M-DE3FGHIJ1LORVWY/HB1G1

Departure

Time 2026-05-01 15:32
Airport Dubrovnik Ruđer Bošković Airport (LDDU)

Arrival

Time N/A
Airport Brussels Airport (EBBR)
Time Latitude Longitude Altitude Speed Heading
2026-05-01 15:11 42.56106 18.26253 517 ft 0 kts 208°
2026-05-01 15:21 42.56121 18.26264 518 ft 3 kts 207°
2026-05-01 15:21 42.56144 18.26281 519 ft 3 kts 208°
2026-05-01 15:21 42.56168 18.26298 520 ft 3 kts 208°
2026-05-01 15:21 42.56186 18.26311 521 ft 0 kts 207°
2026-05-01 15:24 42.56185 18.26311 520 ft 0 kts 207°
2026-05-01 15:25 42.56178 18.26305 520 ft 2 kts 218°
2026-05-01 15:25 42.56175 18.26261 520 ft 7 kts 291°
2026-05-01 15:25 42.56198 18.26187 520 ft 10 kts 298°
2026-05-01 15:25 42.56239 18.26092 521 ft 12 kts 299°
2026-05-01 15:26 42.56286 18.25976 522 ft 15 kts 298°
2026-05-01 15:26 42.56340 18.25844 523 ft 17 kts 298°
2026-05-01 15:26 42.56398 18.25695 523 ft 18 kts 298°
2026-05-01 15:26 42.56460 18.25539 520 ft 19 kts 297°
2026-05-01 15:27 42.56529 18.25363 514 ft 22 kts 297°
2026-05-01 15:27 42.56608 18.25164 507 ft 25 kts 298°
2026-05-01 15:27 42.56692 18.24954 503 ft 25 kts 296°
2026-05-01 15:28 42.56791 18.24712 505 ft 0 kts 312°
2026-05-01 15:31 42.56889 18.24928 503 ft 36 kts 116°
2026-05-01 15:31 42.56176 18.26714 565 ft 166 kts 117°
2026-05-01 15:32 42.55054 18.29536 2032 ft 174 kts 114°
2026-05-01 15:32 42.53890 18.32490 3193 ft 194 kts 113°
2026-05-01 15:33 42.49696 18.33657 4421 ft 279 kts 218°
2026-05-01 15:34 42.45363 18.28029 6758 ft 299 kts 224°